Location: Santa Cristina
(46.5667°N, 11.7167°E)
Time: 17:50:55
(UTC+00:00)

Cosmos 494 Rocket - Pass Details

Date: 21 April 2021
Orbit: 742 x 771 km, 74.1° (Epoch: 11 May)

Event Time Altitude Azimuth Distance (km) Brightness Sun altitude
Rises 03:12:57 0° 337° (NNW) 3,250 7.3 -10.6°
Reaches altitude 10° 03:15:20 10° 336° (NNW) 2,316 6.6 -10.2°
Maximum altitude 03:20:36 79° 251° (WSW) 782 3.9 -9.4°
Drops below altitude 10° 03:25:46 10° 165° (SSE) 2,282 6.3 -8.7°
Sets 03:28:07 0° 164° (SSE) 3,198 7.1 -8.3°
